This is the latest recevied weather packets stored in our database for station/object G3VHU. If no packets are shown the sender has not sent any weather packets the latest 1 day(s).
| Time | Temp. | Humidity | Pressure | Rain* | Wind** | Luminosity | Snow |
|---|---|---|---|---|---|---|---|
| 1778032949 | 7.22° C | 79% | 1015.8 hPa | 0 mm | 1.79 m/s, 42° | - | - |
| 1778032653 | 7.78° C | 78% | 1015.8 hPa | 0 mm | 1.79 m/s, 170° | - | - |
| 1778032350 | 7.78° C | 77% | 1015.7 hPa | 0 mm | 1.79 m/s, 129° | - | - |
| 1778032049 | 7.78° C | 77% | 1015.9 hPa | 0 mm | 2.24 m/s, 358° | - | - |
| 1778031750 | 7.78° C | 77% | 1015.8 hPa | 0 mm | 1.79 m/s, 340° | - | - |
| 1778031450 | 7.78° C | 77% | 1015.7 hPa | 0 mm | 1.79 m/s, 15° | - | - |
| 1778031150 | 7.78° C | 77% | 1015.8 hPa | 0 mm | 2.24 m/s, 60° | - | - |
| 1778030850 | 7.22° C | 77% | 1015.7 hPa | 0 mm | 1.79 m/s, 5° | - | - |
| 1778030550 | 7.22° C | 78% | 1015.7 hPa | 0 mm | 1.34 m/s, 30° | - | - |
| 1778030249 | 7.22° C | 78% | 1015.8 hPa | 0 mm | 1.34 m/s, 319° | - | - |
| 1778029950 | 7.22° C | 78% | 1015.7 hPa | 0 mm | 1.79 m/s, 346° | - | - |
| 1778029650 | 7.22° C | 78% | 1015.7 hPa | 0 mm | 1.79 m/s, 347° | - | - |
| 1778029350 | 7.22° C | 78% | 1015.8 hPa | 0 mm | 1.79 m/s, 30° | - | - |
| 1778029045 | 7.22° C | 78% | 1015.9 hPa | 0 mm | 1.79 m/s, 321° | - | - |
| 1778028746 | 7.22° C | 78% | 1015.9 hPa | 0 mm | 1.79 m/s, 22° | - | - |
| 1778028446 | 7.22° C | 78% | 1015.9 hPa | 0 mm | 1.79 m/s, 336° | - | - |
| 1778028146 | 7.22° C | 78% | 1015.9 hPa | 0 mm | 1.79 m/s, 338° | - | - |
| 1778027846 | 7.22° C | 78% | 1015.9 hPa | 0 mm | 1.79 m/s, 317° | - | - |
| 1778027546 | 7.22° C | 77% | 1015.9 hPa | 0 mm | 1.79 m/s, 2° | - | - |
| 1778027246 | 7.22° C | 77% | 1016 hPa | 0 mm | 2.24 m/s, 30° | - | - |
| 1778026946 | 7.22° C | 77% | 1016 hPa | 0 mm | 2.24 m/s, 219° | - | - |
| 1778026646 | 7.22° C | 77% | 1015.9 hPa | 0 mm | 2.24 m/s, 333° | - | - |
| 1778026346 | 7.78° C | 78% | 1016.1 hPa | 0 mm | 2.24 m/s, 13° | - | - |
| 1778026045 | 7.78° C | 78% | 1016.1 hPa | 0 mm | 2.24 m/s, 1° | - | - |
| 1778025746 | 7.78° C | 78% | 1016.1 hPa | 0 mm | 2.24 m/s, 64° | - | - |
* Rain latest hour (hover to see other rain measurements)
** Current wind speed in m/s (hover to see current wind gust speed)